Location: Newark
(43.9494°N, 6.8108°E)
Time: 04:57:35
(UTC+00:00)

Explorer 11/Cluster Stage 4 - Pass Details

Date: 29 October 2019
Orbit: 467 x 1259 km, 28.8° (Epoch: 19 November)

Event Time Altitude Azimuth Distance (km) Brightness Sun altitude
Rises 05:15:43 0° 225° (SW) 3,252 9.4 -9.4°
Reaches altitude 10° 05:20:26 10° 190° (S) 2,090 8.8 -8.5°
Maximum altitude 05:21:35 11° 176° (S) 1,984 8.8 -8.3°
Drops below altitude 10° 05:22:42 10° 162° (SSE) 1,984 9.1 -8.1°
Sets 05:26:40 0° 124° (ESE) 2,713 10.8 -7.4°
